[[{"header":{"parameterUnit":"m.s-1","parameterCategory":2,"la1":30.2991,"la2":30.254,"lo1":-89.0895,"lo2":-89.0444,"dy":0.0017,"dx":0.0017,"nx":28,"ny":28,"refTime":"2023-08-18T21:00:00:Z","depth":"0","parameterNumber":2,"parameterNumberName":"U-component_of_CURRENTS"},"data":[0,0,0,0,0,0,0,0,0,0,0,0,0,0,0,0,0,0,0,0,0,0,0,0,0,0,0,0,0,0,0,0,0,0,0,0,0,0,0,0,0,0,0,0,0,0,0,0,0,0,0,0,0,0,0,0,0,0,0.3066,0.3066,0,0.3074,0.3074,0.3073,0.313,0.3132,0.3134,0.3136,0.3292,0.3294,0.3297,0,0,0,0,0,0,0,0,0,0,0,0,0,0.3046,0.3046,0.3066,0.3066,0.3067,0.3074,0.3074,0.3073,0.313,0.3132,0.3134,0.3137,0.3291,0.3294,0.3297,0,0,0,0,0,0,0,0,0,0,0,0,0,0.305,0.3046,0.3066,0.31,0.3103,0.3074,0.3074,0.3073,0.313,0.3132,0.3135,0.3138,0.329,0.3294,0.3297,0.3265,0,0,0.3309,0.331,0,0,0,0,0,0,0,0,0.3049,0.305,0.3094,0.3097,0.3101,0.3108,0.3124,0.3146,0.3129,0.3114,0.3136,0.3139,0.3245,0.3253,0.3239,0.3272,0.3279,0.3309,0.3311,0.3313,0.3314,0,0,0,0,0,0,0,0.3049,0.3049,0.3064,0.3095,0.3099,0.3096,0.31,0.3127,0.3163,0.3116,0.3121,0.3129,0.3248,0.3235,0.3244,0.3281,0.3309,0.3312,0.3314,0.3316,0.337,0.3369,0,0,0,0,0,0,0.3057,0.3049,0.3064,0.3065,0.3087,0.3095,0.3099,0.3099,0.316,0.3172,0.3126,0.3132,0.3228,0.3239,0.325,0.326,0.3313,0.3316,0.3318,0.3371,0.337,0.3369,0,0,0,0,0,0,0.3057,0.3058,0.3064,0.3062,0.3063,0.3093,0.3093,0.3098,0.3097,0.3167,0.3182,0.3123,0.323,0.3245,0.3289,0.3266,0.3318,0.3321,0.3372,0.337,0.3369,0.3253,0,0,0,0,0,0,0.3056,0.3057,0.3041,0.3062,0.3064,0.3039,0.3091,0.3096,0.31,0.3106,0.3169,0.3185,0.3234,0.3283,0.3292,0.3272,0.3324,0.3373,0.3371,0.337,0.3258,0.3248,0.324,0,0,0,0,0,0.3055,0.3019,0.304,0.3041,0.3046,0.3038,0.3036,0.3065,0.3097,0.3077,0.3139,0.3184,0.3281,0.3285,0.3296,0.3276,0.3373,0.3372,0.337,0.3262,0.325,0.324,0,0,0,0,0,0,0.2993,0.3022,0.3046,0.3019,0.3029,0.305,0.3024,0.3056,0.3081,0.3098,0.3173,0.3192,0.3224,0.3264,0.3266,0.3289,0.3334,0.3335,0.3248,0.3238,0.3229,0.3196,0.3327,0,0,0,0,0,0.2974,0.2955,0.2991,0.2963,0.2967,0.2995,0.2992,0.302,0.3054,0.3066,0.3109,0.3166,0.3217,0.3241,0.3284,0.3288,0.3315,0.3284,0.3275,0.3267,0.3249,0.3297,0.3291,0.3363,0.3363,0.3363,0,0,0.2942,0.2953,0.2943,0.2949,0.2953,0.2934,0.2998,0.2989,0.2983,0.3081,0.3071,0.3136,0.3215,0.3228,0.3245,0.3263,0.3252,0.3265,0.3257,0.3243,0.3295,0.3288,0.3281,0.3362,0.3362,0.3363,0,0,0.2854,0.2878,0.2831,0.2839,0.2854,0.2876,0.2876,0.2899,0.2919,0.2931,0.3008,0.306,0.3109,0.3161,0.3199,0.3163,0.3208,0.3175,0.3095,0.3142,0.3136,0.3131,0.3112,0.3107,0.3164,0.3163,0.3163,0,0.2798,0.277,0.2813,0.2776,0.2773,0.2848,0.2807,0.2829,0.2864,0.2879,0.2919,0.3009,0.3078,0.3116,0.3105,0.3141,0.3152,0.3128,0.3128,0.3125,0.3122,0.3104,0.31,0.3158,0.3158,0.3159,0.3159,0,0.2693,0.2671,0.2641,0.2627,0.2628,0.2605,0.2661,0.2665,0.2712,0.2749,0.2796,0.2888,0.2946,0.2974,0.303,0.304,0.3046,0.3115,0.315,0.3107,0.3091,0.3089,0.3149,0.3151,0.3153,0.3154,0,0,0.2541,0.256,0.2543,0.2538,0.2556,0.2551,0.254,0.2558,0.2566,0.262,0.2627,0.2721,0.2785,0.2831,0.2912,0.2948,0.2933,0.3005,0.301,0.2973,0.2979,0.2862,0.2848,0.3004,0.3004,0.3004,0.2958,0,0.243,0.2359,0.2393,0.2332,0.231,0.2381,0.2368,0.2409,0.2462,0.2487,0.2602,0.2647,0.273,0.2765,0.2812,0.2931,0.2928,0.2935,0.3037,0.3038,0.2932,0.2843,0.2705,0.2643,0.2956,0.2956,0.2956,0,0.2293,0.2281,0.2206,0.2226,0.2219,0.2196,0.2216,0.2222,0.2295,0.2342,0.2409,0.2504,0.2578,0.2659,0.2785,0.2784,0.2846,0.2921,0.2924,0.2854,0.2918,0.2749,0.2628,0.2477,0.2953,0.2953,0.2953,0,0.2178,0.2141,0.2089,0.2089,0.2119,0.2099,0.2114,0.2167,0.2184,0.2249,0.227,0.2384,0.2446,0.2561,0.2712,0.2748,0.2833,0.2918,0.2848,0.2839,0.2759,0.2743,0.2496,0.2954,0.2954,0.2954,0.2955,0,0.2052,0.2005,0.2036,0.2014,0.1963,0.2015,0.1982,0.2013,0.2067,0.2078,0.219,0.222,0.2428,0.2516,0.265,0.2717,0.2783,0.2788,0.2814,0.2708,0.2688,0.2589,0.2538,0.2953,0.2953,0.2953,0.2954,0,0.1927,0.1943,0.189,0.1907,0.1907,0.1871,0.1898,0.1895,0.1945,0.1959,0.1973,0.2096,0.2201,0.2367,0.2548,0.2611,0.2591,0.2712,0.2529,0.2532,0.2308,0.2257,0.201,0.1977,0.2607,0.2604,0.2601,0,0.1855,0.1815,0.1801,0.1783,0.1784,0.1764,0.1759,0.1817,0.1827,0.1885,0.1886,0.1966,0.2025,0.2196,0.2345,0.2474,0.2431,0.2367,0.2411,0.221,0.2177,0.212,0.2111,0.2251,0.2246,0.2241,0.2238,0,0.173,0.1719,0.1699,0.1663,0.1642,0.1632,0.1636,0.1627,0.1698,0.1706,0.173,0.1769,0.1901,0.1969,0.2096,0.2185,0.2159,0.2275,0.2144,0.1896,0.1746,0.1757,0.2331,0.2198,0.2202,0.2205,0.2207,0.2209,0.163,0.1591,0.1575,0.1536,0.152,0.1507,0.1485,0.1513,0.1509,0.1521,0.1579,0.1594,0.1632,0.1807,0.1873,0.1783,0.1887,0.1724,0.1684,0.1649,0.1569,0.1995,0.1856,0.1858,0.1859,0.1861,0.1862,0,0.1513,0.1501,0.1462,0.1425,0.1388,0.1416,0.1411,0.1404,0.1383,0.1392,0.1399,0.134,0.1321,0.1373,0.1305,0.1206,0.1254,0.1124,0.1025,0.1064,0.1495,0.1432,0.11,0.11,0.11,0.11,0.1101,0.1101,0.1455,0.1398,0.1393,0.1315,0.1296,0.1257,0.1249,0.1243,0.125,0.1185,0.1128,0.1108,0.0982,0.0769,0.0608,0.0625,0.0571,0.0475,0.0545,0.0828,0.0883,0.0935,0.086,0.0414,0.0413,0.0103,0.01,0.0097]},{"header":{"parameterUnit":"m.s-1","parameterCategory":2,"la1":30.2991,"la2":30.254,"lo1":-89.0895,"lo2":-89.0444,"dy":0.0017,"dx":0.0017,"nx":28,"ny":28,"refTime":"2023-08-18T21:00:00:Z","depth":"0","parameterNumber":3,"parameterNumberName":"V-component_of_CURRENTS"},"data":[0,0,0,0,0,0,0,0,0,0,0,0,0,0,0,0,0,0,0,0,0,0,0,0,0,0,0,0,0,0,0,0,0,0,0,0,0,0,0,0,0,0,0,0,0,0,0,0,0,0,0,0,0,0,0,0,0,0,0.1538,0.1538,0,0.1504,0.1502,0.1501,0.1528,0.153,0.1532,0.1534,0.158,0.1579,0.1579,0,0,0,0,0,0,0,0,0,0,0,0,0,0.1506,0.1506,0.1538,0.1538,0.1539,0.1504,0.1502,0.1501,0.1528,0.153,0.1532,0.1535,0.158,0.1579,0.1578,0,0,0,0,0,0,0,0,0,0,0,0,0,0.1492,0.1506,0.1538,0.1555,0.1557,0.1504,0.1502,0.1501,0.1527,0.153,0.1533,0.1536,0.158,0.1579,0.1578,0.1512,0,0,0.1575,0.1575,0,0,0,0,0,0,0,0,0.1492,0.1492,0.1552,0.1554,0.1556,0.1531,0.1508,0.1512,0.1526,0.1528,0.1534,0.1537,0.1575,0.1575,0.1547,0.1514,0.1516,0.1575,0.1575,0.1574,0.1574,0,0,0,0,0,0,0,0.1493,0.1493,0.1515,0.1552,0.1555,0.1524,0.1525,0.1507,0.1529,0.1528,0.1533,0.1543,0.1576,0.1547,0.1549,0.1516,0.1575,0.1574,0.1574,0.1573,0.1541,0.154,0,0,0,0,0,0,0.152,0.1494,0.1516,0.1515,0.1542,0.1523,0.1524,0.1528,0.1528,0.1533,0.154,0.1544,0.1548,0.155,0.155,0.1589,0.1574,0.1573,0.1573,0.1541,0.1541,0.154,0,0,0,0,0,0,0.1519,0.1522,0.1517,0.1511,0.151,0.1522,0.1526,0.1526,0.1513,0.1538,0.1543,0.153,0.155,0.1552,0.1577,0.1587,0.1573,0.1572,0.1541,0.1541,0.154,0.1591,0,0,0,0,0,0,0.1518,0.1521,0.1521,0.1513,0.1512,0.1513,0.1524,0.1524,0.1518,0.1523,0.153,0.1536,0.1553,0.1579,0.1576,0.1585,0.1571,0.1542,0.1541,0.1541,0.159,0.1592,0.1595,0,0,0,0,0,0.1517,0.1524,0.1521,0.1524,0.1516,0.1514,0.1509,0.1521,0.1515,0.1515,0.1535,0.1537,0.1573,0.1578,0.1575,0.1584,0.1542,0.1541,0.1541,0.1589,0.1592,0.1595,0,0,0,0,0,0,0.1531,0.1528,0.1525,0.1536,0.1535,0.1523,0.1524,0.1512,0.1514,0.1528,0.1536,0.1544,0.1573,0.1557,0.1562,0.157,0.1555,0.1553,0.1592,0.1595,0.1597,0.1589,0.157,0,0,0,0,0,0.1527,0.1521,0.1523,0.1532,0.1532,0.1515,0.151,0.1518,0.1525,0.1526,0.1531,0.1539,0.1556,0.1564,0.1574,0.1566,0.1554,0.1566,0.1569,0.1571,0.156,0.156,0.1562,0.1538,0.1538,0.1538,0,0,0.1535,0.1535,0.1533,0.1532,0.1525,0.1528,0.1518,0.1525,0.1534,0.1531,0.1543,0.1551,0.1558,0.1578,0.1585,0.1573,0.1572,0.157,0.1573,0.156,0.156,0.1562,0.1564,0.1538,0.1538,0.1538,0,0,0.1548,0.1548,0.1541,0.1544,0.1548,0.1542,0.1544,0.1534,0.154,0.1549,0.156,0.1574,0.1576,0.1591,0.1598,0.1604,0.1592,0.16,0.1602,0.1603,0.1605,0.1607,0.1605,0.1606,0.1594,0.1594,0.1594,0,0.1549,0.1548,0.1543,0.1546,0.155,0.1549,0.155,0.1555,0.1557,0.1558,0.1573,0.1574,0.1584,0.1604,0.1617,0.1612,0.1606,0.1599,0.1608,0.1609,0.161,0.1608,0.1609,0.1597,0.1596,0.1596,0.1596,0,0.1548,0.1558,0.1563,0.1559,0.1565,0.157,0.1587,0.1592,0.1593,0.1591,0.161,0.1621,0.1619,0.1625,0.1628,0.1633,0.1625,0.1622,0.1607,0.1616,0.1613,0.1613,0.16,0.1599,0.1599,0.1598,0,0,0.1498,0.1545,0.154,0.1553,0.1569,0.1573,0.1602,0.1607,0.1616,0.1629,0.1633,0.1656,0.1645,0.1648,0.1647,0.1643,0.1655,0.1632,0.1631,0.164,0.1655,0.1615,0.1611,0.1658,0.1658,0.1658,0.1654,0,0.1481,0.1497,0.152,0.1542,0.1551,0.1577,0.1595,0.1615,0.1632,0.1644,0.1657,0.1667,0.1661,0.1662,0.1661,0.1667,0.1655,0.1656,0.1634,0.1633,0.1605,0.1609,0.1664,0.1662,0.1654,0.1654,0.1654,0,0.1442,0.1465,0.1479,0.1532,0.1534,0.1552,0.1573,0.1595,0.163,0.1644,0.166,0.1671,0.1683,0.167,0.1676,0.1679,0.1659,0.1654,0.1654,0.1593,0.1591,0.1647,0.1662,0.1671,0.1654,0.1654,0.1654,0,0.1384,0.1427,0.1436,0.1452,0.1511,0.1525,0.1549,0.1584,0.1605,0.1641,0.1657,0.1677,0.169,0.1683,0.1687,0.1678,0.1689,0.1678,0.1617,0.1614,0.1642,0.1641,0.1669,0.1652,0.1652,0.1652,0.1652,0,0.1351,0.1362,0.1415,0.1429,0.1443,0.1492,0.1514,0.1543,0.1588,0.1614,0.1647,0.1673,0.1692,0.1709,0.1696,0.1669,0.1698,0.161,0.1607,0.166,0.166,0.1651,0.1629,0.1652,0.1652,0.1652,0.1652,0,0.1305,0.1339,0.1353,0.1405,0.1425,0.1431,0.1503,0.1526,0.1566,0.1605,0.1616,0.1675,0.17,0.1714,0.1714,0.1674,0.1667,0.1628,0.1687,0.1688,0.1605,0.1583,0.1557,0.163,0.1549,0.1547,0.1547,0,0.1287,0.1285,0.1319,0.1335,0.1367,0.1402,0.1434,0.15,0.1535,0.1607,0.1625,0.1666,0.1703,0.1703,0.1678,0.165,0.1651,0.1625,0.1598,0.1599,0.1574,0.1568,0.1633,0.1669,0.1669,0.1669,0.1669,0,0.125,0.1245,0.1267,0.1288,0.1323,0.1368,0.1425,0.1451,0.1528,0.1566,0.1622,0.166,0.1689,0.1709,0.1668,0.1646,0.1659,0.162,0.1627,0.1659,0.1652,0.1723,0.1668,0.167,0.167,0.167,0.167,0.167,0.1208,0.1208,0.1225,0.1246,0.1282,0.1329,0.1359,0.1417,0.1467,0.1518,0.16,0.1648,0.1735,0.1704,0.1678,0.1654,0.1632,0.1623,0.1595,0.1587,0.1655,0.1581,0.1567,0.1566,0.1566,0.1565,0.1565,0,0.1173,0.1191,0.1196,0.1228,0.1241,0.1282,0.135,0.1374,0.1413,0.1474,0.153,0.167,0.1709,0.174,0.1735,0.167,0.1711,0.1633,0.1677,0.1749,0.1699,0.1703,0.1713,0.1713,0.1713,0.1713,0.1713,0.1713,0.1169,0.1169,0.1175,0.1186,0.1205,0.1235,0.1268,0.1297,0.1344,0.1417,0.1493,0.1599,0.1664,0.1668,0.1681,0.1691,0.1748,0.1663,0.1693,0.1676,0.1675,0.1674,0.1676,0.1681,0.168,0.1837,0.1838,0.1838]}],[{"header":{"parameterUnit":"m.s-1","parameterCategory":2,"la1":30.2991,"la2":30.254,"lo1":-89.0895,"lo2":-89.0444,"dy":0.0017,"dx":0.0017,"nx":28,"ny":28,"refTime":"2023-08-18T21:00:00:Z","depth":"2","parameterNumber":2,"parameterNumberName":"U-component_of_CURRENTS"},"data":[0,0,0,0,0,0,0,0,0,0,0,0,0,0,0,0,0,0,0,0,0,0,0,0,0,0,0,0,0,0,0,0,0,0,0,0,0,0,0,0,0,0,0,0,0,0,0,0,0,0,0,0,0,0,0,0,0,0,-0.0235,-0.0234,0,-0.0201,-0.0201,-0.0201,-0.0105,-0.0102,-0.01,-0.0098,-0.0123,-0.0126,-0.0129,0,0,0,0,0,0,0,0,0,0,0,0,0,-0.0262,-0.0262,-0.0235,-0.0234,-0.0233,-0.0201,-0.0201,-0.0201,-0.0105,-0.0102,-0.0099,-0.0097,-0.0123,-0.0126,-0.0129,0,0,0,0,0,0,0,0,0,0,0,0,0,-0.0244,-0.0262,-0.0235,-0.018,-0.0174,-0.0201,-0.0201,-0.0201,-0.0106,-0.0102,-0.0099,-0.0095,-0.0121,-0.0126,-0.013,-0.0227,0,0,-0.0143,-0.0145,0,0,0,0,0,0,0,0,-0.0245,-0.0244,-0.0188,-0.0184,-0.0177,-0.0151,-0.022,-0.0212,-0.0107,-0.0135,-0.0098,-0.0094,-0.0139,-0.0142,-0.0146,-0.0228,-0.0229,-0.0143,-0.0146,-0.0148,-0.0149,0,0,0,0,0,0,0,-0.0247,-0.0245,-0.0224,-0.0188,-0.0181,-0.0172,-0.0166,-0.0218,-0.016,-0.0132,-0.0124,-0.0117,-0.0136,-0.0142,-0.0146,-0.023,-0.0143,-0.0147,-0.015,-0.0151,-0.033,-0.0332,0,0,0,0,0,0,-0.0247,-0.0246,-0.0225,-0.0223,-0.02,-0.0174,-0.0167,-0.0165,-0.0158,-0.0152,-0.012,-0.0113,-0.0137,-0.0141,-0.0147,-0.0164,-0.0148,-0.0152,-0.0154,-0.0328,-0.033,-0.0333,0,0,0,0,0,0,-0.0248,-0.0246,-0.0227,-0.0231,-0.0227,-0.0177,-0.0176,-0.0167,-0.0125,-0.0148,-0.0143,-0.0082,-0.0134,-0.0141,-0.0175,-0.0168,-0.0154,-0.0158,-0.0325,-0.0328,-0.0331,-0.0262,0,0,0,0,0,0,-0.0249,-0.0247,-0.0241,-0.0231,-0.0227,-0.0226,-0.0179,-0.0168,-0.0128,-0.0116,-0.0116,-0.0117,-0.0132,-0.0169,-0.0179,-0.0173,-0.0161,-0.0322,-0.0327,-0.033,-0.0261,-0.0262,-0.0263,0,0,0,0,0,-0.025,-0.0266,-0.0241,-0.0238,-0.0223,-0.0226,-0.0224,-0.0178,-0.0129,-0.0124,-0.0125,-0.0114,-0.0201,-0.0174,-0.0186,-0.0181,-0.032,-0.0325,-0.033,-0.0261,-0.0262,-0.0263,0,0,0,0,0,0,-0.0279,-0.0257,-0.0229,-0.0237,-0.022,-0.0208,-0.02,-0.0164,-0.016,-0.0135,-0.0145,-0.0149,-0.0178,-0.021,-0.0179,-0.0253,-0.026,-0.0267,-0.0203,-0.0205,-0.0205,-0.0164,-0.0165,0,0,0,0,0,-0.0284,-0.0282,-0.0261,-0.0263,-0.0252,-0.0218,-0.0207,-0.0172,-0.0168,-0.0156,-0.0153,-0.0175,-0.0222,-0.023,-0.0277,-0.0319,-0.0318,-0.033,-0.033,-0.033,-0.0311,-0.0333,-0.0331,-0.0349,-0.0348,-0.0348,0,0,-0.0297,-0.0282,-0.0281,-0.0268,-0.0247,-0.024,-0.0202,-0.0177,-0.0165,-0.017,-0.0153,-0.0179,-0.0239,-0.0279,-0.0294,-0.029,-0.0323,-0.0336,-0.0335,-0.0315,-0.0337,-0.0335,-0.0333,-0.0352,-0.0351,-0.0351,0,0,-0.0319,-0.0304,-0.0299,-0.0287,-0.0249,-0.0241,-0.0223,-0.0189,-0.0164,-0.0172,-0.0175,-0.0188,-0.0247,-0.0276,-0.0308,-0.0353,-0.0333,-0.037,-0.0325,-0.0346,-0.0343,-0.0341,-0.0308,-0.0303,-0.0361,-0.036,-0.036,0,-0.0325,-0.0316,-0.0301,-0.0289,-0.0272,-0.0235,-0.0219,-0.0217,-0.0193,-0.0181,-0.0158,-0.0215,-0.0249,-0.0302,-0.0303,-0.0346,-0.0335,-0.0303,-0.034,-0.0338,-0.0336,-0.0304,-0.0299,-0.0358,-0.0358,-0.0358,-0.0359,0,-0.0336,-0.0321,-0.032,-0.0289,-0.028,-0.0265,-0.0249,-0.0229,-0.0189,-0.0175,-0.0185,-0.0223,-0.0242,-0.0268,-0.0291,-0.0307,-0.0292,-0.0337,-0.0317,-0.0329,-0.0296,-0.0292,-0.0354,-0.0355,-0.0356,-0.0356,0,0,-0.0359,-0.033,-0.0322,-0.0298,-0.0269,-0.0262,-0.0255,-0.0241,-0.0214,-0.0199,-0.0174,-0.0233,-0.0201,-0.0237,-0.0261,-0.027,-0.0236,-0.0276,-0.0279,-0.0205,-0.023,-0.0173,-0.0163,-0.0275,-0.0275,-0.0275,-0.0198,0,-0.0356,-0.0333,-0.0321,-0.0298,-0.0282,-0.0256,-0.0254,-0.0235,-0.0213,-0.0191,-0.0206,-0.0206,-0.0211,-0.0196,-0.0206,-0.0241,-0.0228,-0.0249,-0.0263,-0.0262,-0.018,-0.0159,-0.0319,-0.0261,-0.0195,-0.0194,-0.0194,0,-0.0355,-0.0338,-0.0308,-0.028,-0.0268,-0.0249,-0.0211,-0.0206,-0.0191,-0.0168,-0.0149,-0.0151,-0.0149,-0.0161,-0.0171,-0.0176,-0.018,-0.0202,-0.0202,-0.0167,-0.02,-0.0251,-0.0257,-0.0187,-0.0188,-0.0188,-0.0189,0,-0.0357,-0.0329,-0.03,-0.0288,-0.0256,-0.0225,-0.0205,-0.0179,-0.0172,-0.0134,-0.0114,-0.0108,-0.0096,-0.011,-0.011,-0.0136,-0.0115,-0.0176,-0.0126,-0.0121,-0.0269,-0.0276,-0.0179,-0.0179,-0.0179,-0.018,-0.018,0,-0.0359,-0.0334,-0.0288,-0.0268,-0.0227,-0.0203,-0.0161,-0.0138,-0.0116,-0.0107,-0.0084,-0.0078,-0.0082,-0.007,-0.0083,-0.0057,-0.0087,-0.0089,-0.0098,-0.0247,-0.0254,-0.0216,-0.0222,-0.0177,-0.0177,-0.0178,-0.0178,0,-0.0356,-0.0331,-0.0294,-0.0242,-0.022,-0.0181,-0.0135,-0.0122,-0.0087,-0.0073,-0.0056,-0.0042,-0.0007,0.0005,-0.0008,-0.0012,-0.0012,-0.0001,-0.0129,-0.0154,-0.0006,-0.0009,0.0062,0.0065,0.0067,0.0069,0.007,0,-0.0351,-0.0328,-0.0266,-0.024,-0.0203,-0.0151,-0.0127,-0.0096,-0.0095,-0.0064,-0.0072,-0.0014,0.0,0.0052,0.0054,0.0087,0.0068,-0.0029,-0.0121,0.0036,0.0019,0.0011,0.0005,-0.0289,-0.0291,-0.0292,-0.0293,0,-0.0337,-0.0305,-0.0276,-0.0223,-0.018,-0.0157,-0.0121,-0.0124,-0.0103,-0.009,-0.0075,-0.0054,0.0007,-0.0032,0.0045,0.0022,-0.0042,-0.0048,0.0109,-0.0303,-0.0284,-0.0304,-0.0302,-0.0304,-0.0303,-0.0302,-0.0302,-0.0301,-0.0316,-0.0296,-0.0256,-0.0206,-0.0173,-0.0162,-0.0149,-0.0147,-0.0144,-0.0147,-0.0123,-0.0103,-0.0196,-0.0118,-0.0097,-0.0033,-0.0028,-0.0128,-0.0131,-0.013,-0.0163,-0.0139,-0.0134,-0.0132,-0.0131,-0.0129,-0.0128,0,-0.0301,-0.028,-0.0246,-0.0204,-0.0186,-0.0155,-0.0155,-0.017,-0.0174,-0.0209,-0.0199,-0.0241,-0.0312,-0.0274,-0.0212,-0.0197,-0.0245,-0.0206,-0.0347,-0.0341,-0.0333,-0.0379,-0.0406,-0.0405,-0.0404,-0.0403,0,0,-0.0294,-0.0267,-0.0258,-0.0221,-0.019,-0.0169,-0.0166,-0.0194,-0.0239,-0.025,-0.0246,-0.038,-0.0383,-0.0429,-0.0473,-0.0411,-0.0365,-0.0406,-0.0219,-0.0391,-0.0382,-0.0356,-0.0427,0,0,0,0,0]},{"header":{"parameterUnit":"m.s-1","parameterCategory":2,"la1":30.2991,"la2":30.254,"lo1":-89.0895,"lo2":-89.0444,"dy":0.0017,"dx":0.0017,"nx":28,"ny":28,"refTime":"2023-08-18T21:00:00:Z","depth":"2","parameterNumber":3,"parameterNumberName":"V-component_of_CURRENTS"},"data":[0,0,0,0,0,0,0,0,0,0,0,0,0,0,0,0,0,0,0,0,0,0,0,0,0,0,0,0,0,0,0,0,0,0,0,0,0,0,0,0,0,0,0,0,0,0,0,0,0,0,0,0,0,0,0,0,0,0,-0.0717,-0.0717,0,-0.0723,-0.0723,-0.0723,-0.0733,-0.0733,-0.0734,-0.0734,-0.0771,-0.0772,-0.0773,0,0,0,0,0,0,0,0,0,0,0,0,0,-0.0703,-0.0704,-0.0717,-0.0717,-0.0718,-0.0723,-0.0723,-0.0723,-0.0733,-0.0733,-0.0734,-0.0734,-0.0771,-0.0772,-0.0773,0,0,0,0,0,0,0,0,0,0,0,0,0,-0.0709,-0.0704,-0.0717,-0.0723,-0.0724,-0.0723,-0.0723,-0.0724,-0.0733,-0.0733,-0.0734,-0.0734,-0.0771,-0.0772,-0.0773,-0.0776,0,0,-0.0777,-0.0778,0,0,0,0,0,0,0,0,-0.0709,-0.071,-0.0722,-0.0723,-0.0723,-0.0728,-0.0732,-0.0743,-0.0733,-0.073,-0.0734,-0.0734,-0.076,-0.0762,-0.0762,-0.0778,-0.078,-0.0777,-0.0778,-0.0779,-0.0779,0,0,0,0,0,0,0,-0.0709,-0.071,-0.072,-0.0722,-0.0723,-0.0721,-0.0723,-0.0734,-0.0744,-0.073,-0.0731,-0.0731,-0.076,-0.0761,-0.0763,-0.078,-0.0777,-0.0778,-0.0779,-0.078,-0.0843,-0.0844,0,0,0,0,0,0,-0.0708,-0.0709,-0.072,-0.072,-0.0716,-0.0721,-0.0723,-0.0726,-0.0743,-0.0746,-0.0731,-0.0731,-0.0758,-0.0762,-0.0764,-0.0791,-0.0779,-0.078,-0.0781,-0.0842,-0.0843,-0.0844,0,0,0,0,0,0,-0.0708,-0.0709,-0.0719,-0.0715,-0.0716,-0.0721,-0.0725,-0.0726,-0.0727,-0.0743,-0.0746,-0.0731,-0.0759,-0.0763,-0.0785,-0.0792,-0.078,-0.0782,-0.0841,-0.0842,-0.0843,-0.083,0,0,0,0,0,0,-0.0707,-0.0709,-0.0703,-0.0715,-0.0716,-0.0718,-0.0725,-0.0726,-0.0727,-0.0728,-0.0745,-0.0748,-0.0759,-0.0783,-0.0786,-0.0793,-0.0783,-0.084,-0.0841,-0.0843,-0.083,-0.0831,-0.0832,0,0,0,0,0,-0.0707,-0.0694,-0.0703,-0.0703,-0.0711,-0.0718,-0.0719,-0.0723,-0.0727,-0.0726,-0.0746,-0.0748,-0.0796,-0.0785,-0.0788,-0.0796,-0.0839,-0.0841,-0.0843,-0.0829,-0.0831,-0.0832,0,0,0,0,0,0,-0.0675,-0.0694,-0.0704,-0.0695,-0.0708,-0.072,-0.071,-0.0722,-0.0735,-0.0735,-0.0755,-0.076,-0.0784,-0.0795,-0.0781,-0.0822,-0.0819,-0.0822,-0.0808,-0.081,-0.0811,-0.08,-0.0784,0,0,0,0,0,-0.0668,-0.0667,-0.0689,-0.068,-0.0686,-0.07,-0.0701,-0.071,-0.0726,-0.0731,-0.0749,-0.0771,-0.0795,-0.0805,-0.0825,-0.0842,-0.0822,-0.0853,-0.0854,-0.0855,-0.085,-0.0825,-0.0822,-0.0851,-0.0851,-0.0851,0,0,-0.065,-0.0661,-0.0659,-0.0674,-0.0681,-0.0691,-0.0701,-0.0702,-0.0715,-0.0733,-0.0752,-0.0774,-0.0802,-0.0825,-0.0837,-0.0834,-0.0836,-0.0857,-0.0858,-0.0853,-0.0826,-0.0823,-0.082,-0.0852,-0.0852,-0.0852,0,0,-0.0623,-0.0629,-0.0626,-0.0639,-0.0655,-0.067,-0.0673,-0.0694,-0.0706,-0.073,-0.0752,-0.0776,-0.081,-0.083,-0.0846,-0.0866,-0.0844,-0.0879,-0.0874,-0.0849,-0.0845,-0.0842,-0.0801,-0.0794,-0.0879,-0.0879,-0.0879,0,-0.0602,-0.0607,-0.0623,-0.063,-0.0639,-0.0664,-0.0671,-0.0686,-0.0715,-0.0727,-0.0736,-0.0789,-0.0811,-0.084,-0.0855,-0.0867,-0.0843,-0.0861,-0.0847,-0.0844,-0.084,-0.0799,-0.0792,-0.0878,-0.0878,-0.0878,-0.0878,0,-0.0583,-0.0589,-0.0585,-0.061,-0.0622,-0.0627,-0.066,-0.0674,-0.0697,-0.0718,-0.0751,-0.0782,-0.0811,-0.083,-0.0851,-0.0854,-0.0839,-0.0848,-0.0834,-0.0836,-0.0793,-0.0786,-0.0878,-0.0878,-0.0878,-0.0878,0,0,-0.0542,-0.0568,-0.057,-0.0581,-0.0614,-0.0623,-0.0645,-0.0675,-0.0683,-0.0719,-0.0729,-0.0785,-0.0798,-0.0818,-0.0844,-0.0834,-0.0795,-0.0834,-0.0833,-0.0777,-0.0721,-0.0643,-0.0627,-0.0795,-0.0795,-0.0794,-0.0694,0,-0.0528,-0.0536,-0.0557,-0.0569,-0.058,-0.0612,-0.063,-0.0659,-0.0684,-0.0698,-0.0735,-0.0754,-0.0795,-0.0802,-0.0803,-0.0804,-0.0777,-0.082,-0.0741,-0.0739,-0.0656,-0.0617,-0.062,-0.0526,-0.0687,-0.0685,-0.0685,0,-0.0513,-0.0524,-0.0533,-0.0559,-0.0566,-0.0576,-0.0605,-0.0622,-0.0652,-0.0668,-0.0693,-0.0717,-0.0734,-0.0752,-0.0736,-0.076,-0.0736,-0.0728,-0.0723,-0.0649,-0.0647,-0.0555,-0.0506,-0.0672,-0.0673,-0.0674,-0.0675,0,-0.049,-0.0509,-0.0516,-0.0526,-0.0558,-0.0564,-0.0578,-0.061,-0.0616,-0.0635,-0.063,-0.0665,-0.0658,-0.0656,-0.0657,-0.0687,-0.061,-0.0645,-0.0546,-0.054,-0.0526,-0.052,-0.0599,-0.0599,-0.0599,-0.06,-0.06,0,-0.0475,-0.0481,-0.0501,-0.0507,-0.0511,-0.0538,-0.0539,-0.0559,-0.0568,-0.0558,-0.0604,-0.0586,-0.0629,-0.0605,-0.0617,-0.0546,-0.0571,-0.0523,-0.0503,-0.0521,-0.0516,-0.064,-0.0646,-0.0596,-0.0597,-0.0597,-0.0598,0,-0.0454,-0.0468,-0.0475,-0.0497,-0.0501,-0.0501,-0.0508,-0.0508,-0.0514,-0.0492,-0.0491,-0.0506,-0.0468,-0.049,-0.0464,-0.0462,-0.0424,-0.0387,-0.0395,-0.0376,-0.0382,-0.0389,-0.0266,-0.0262,-0.0259,-0.0257,-0.0254,0,-0.0446,-0.0446,-0.046,-0.0462,-0.0469,-0.0469,-0.0473,-0.0482,-0.0472,-0.0435,-0.0416,-0.0373,-0.0335,-0.0267,-0.0243,-0.0203,-0.0297,-0.0199,-0.0257,-0.0351,-0.0345,-0.0357,-0.0368,-0.0237,-0.0235,-0.0233,-0.0231,0,-0.0431,-0.0433,-0.0442,-0.0442,-0.0441,-0.0437,-0.0429,-0.0407,-0.0399,-0.0364,-0.0294,-0.0249,-0.0153,-0.0114,-0.006,-0.0056,-0.0214,-0.0156,-0.0243,-0.0314,-0.0314,-0.0311,-0.0325,-0.0216,-0.0217,-0.0218,-0.0219,-0.022,-0.042,-0.042,-0.0428,-0.0425,-0.0424,-0.0403,-0.0383,-0.0353,-0.0309,-0.0232,-0.019,-0.0143,-0.011,-0.0026,0.0028,0.0035,0.0011,-0.0069,-0.0079,-0.009,-0.0098,-0.0091,0.0048,0.0048,0.0048,0.0048,0.0048,0,-0.0412,-0.0414,-0.0411,-0.0407,-0.0398,-0.0398,-0.0359,-0.0328,-0.0253,-0.0158,-0.007,-0.0095,-0.0016,-0.0022,0.0054,0.0121,0.0079,0.007,-0.0032,-0.0047,-0.006,-0.0072,0.0084,0.0084,0.0084,0.0085,0,0,-0.0407,-0.0407,-0.0404,-0.0386,-0.038,-0.0346,-0.0315,-0.0261,-0.0192,-0.0117,-0.0101,-0.0009,-0.0029,-0.0003,0.0065,0.0082,0.0018,0.0088,0.0057,-0.0077,-0.009,-0.0141,-0.0173,0,0,0,0,0]}],[{"header":{"parameterUnit":"m.s-1","parameterCategory":2,"la1":30.2991,"la2":30.254,"lo1":-89.0895,"lo2":-89.0444,"dy":0.0017,"dx":0.0017,"nx":28,"ny":28,"refTime":"2023-08-18T21:00:00:Z","depth":"4","parameterNumber":2,"parameterNumberName":"U-component_of_CURRENTS"},"data":[0,0,0,0,0,0,0,0,0,0,0,0,0,0,0,0,0,0,0,0,0,0,0,0,0,0,0,0,0,0,0,0,0,0,0,0,0,0,0,0,0,0,0,0,0,0,0,0,0,0,0,0,0,0,0,0,0,0,-0.0595,-0.0595,0,-0.0635,-0.0636,-0.0636,-0.0672,-0.0673,-0.0673,-0.0674,-0.0734,-0.0735,-0.0736,0,0,0,0,0,0,0,0,0,0,0,0,0,-0.0525,-0.0526,-0.0595,-0.0595,-0.0596,-0.0635,-0.0636,-0.0636,-0.0672,-0.0673,-0.0673,-0.0674,-0.0733,-0.0735,-0.0736,0,0,0,0,0,0,0,0,0,0,0,0,0,-0.0559,-0.0526,-0.0594,-0.0618,-0.0621,-0.0635,-0.0636,-0.0636,-0.0672,-0.0673,-0.0673,-0.0674,-0.0733,-0.0735,-0.0736,-0.0734,0,0,-0.0742,-0.0743,0,0,0,0,0,0,0,0,-0.0557,-0.0561,-0.0614,-0.0617,-0.062,-0.0649,-0.0633,-0.067,-0.0672,-0.0653,-0.0674,-0.0674,-0.0707,-0.0711,-0.0717,-0.0737,-0.074,-0.0742,-0.0743,-0.0744,-0.0744,0,0,0,0,0,0,0,-0.0555,-0.056,-0.0611,-0.0615,-0.0618,-0.0619,-0.0625,-0.064,-0.0676,-0.0654,-0.0657,-0.0661,-0.0709,-0.0715,-0.0718,-0.0741,-0.0742,-0.0744,-0.0745,-0.0745,-0.0819,-0.082,0,0,0,0,0,0,-0.0551,-0.0558,-0.0609,-0.0612,-0.0589,-0.062,-0.0626,-0.0639,-0.0675,-0.0681,-0.0661,-0.0663,-0.0711,-0.0716,-0.0721,-0.0809,-0.0744,-0.0746,-0.0747,-0.0818,-0.0819,-0.082,0,0,0,0,0,0,-0.0549,-0.0555,-0.0608,-0.0585,-0.0592,-0.062,-0.0634,-0.064,-0.067,-0.068,-0.0687,-0.0689,-0.0712,-0.0718,-0.0745,-0.0808,-0.0746,-0.0748,-0.0817,-0.0819,-0.082,-0.0928,0,0,0,0,0,0,-0.0547,-0.0554,-0.0571,-0.0585,-0.0593,-0.063,-0.0634,-0.064,-0.067,-0.0674,-0.0706,-0.0711,-0.0713,-0.0742,-0.0747,-0.0809,-0.0749,-0.0816,-0.0818,-0.0819,-0.0924,-0.0933,-0.0941,0,0,0,0,0,-0.0544,-0.0555,-0.0572,-0.0579,-0.0613,-0.063,-0.0635,-0.0656,-0.0671,-0.0687,-0.0703,-0.0711,-0.0757,-0.0744,-0.0749,-0.0814,-0.0815,-0.0817,-0.0819,-0.092,-0.0931,-0.0941,0,0,0,0,0,0,-0.0534,-0.0561,-0.0579,-0.06,-0.0623,-0.0637,-0.066,-0.067,-0.0696,-0.0726,-0.0717,-0.0722,-0.0775,-0.0763,-0.075,-0.0835,-0.079,-0.0793,-0.0865,-0.0876,-0.0884,-0.0864,-0.0751,0,0,0,0,0,-0.054,-0.0568,-0.0584,-0.0612,-0.0625,-0.0649,-0.0664,-0.0694,-0.0713,-0.0727,-0.0741,-0.0763,-0.0783,-0.0803,-0.0819,-0.086,-0.0824,-0.0902,-0.0912,-0.0919,-0.0904,-0.0894,-0.0901,-0.0827,-0.0827,-0.0827,0,0,-0.055,-0.0568,-0.0586,-0.0613,-0.0641,-0.066,-0.0661,-0.0715,-0.0751,-0.0731,-0.0787,-0.0799,-0.0797,-0.085,-0.0873,-0.0853,-0.0924,-0.0922,-0.0929,-0.0908,-0.0897,-0.0904,-0.091,-0.0828,-0.0828,-0.0828,0,0,-0.0574,-0.0599,-0.0627,-0.0645,-0.0697,-0.0706,-0.0724,-0.0763,-0.0803,-0.0849,-0.0851,-0.0885,-0.0914,-0.0928,-0.0935,-0.0994,-0.097,-0.1014,-0.1053,-0.1046,-0.1052,-0.1057,-0.1033,-0.1035,-0.1022,-0.1022,-0.1022,0,-0.0594,-0.0615,-0.0638,-0.0665,-0.0684,-0.0723,-0.0754,-0.0795,-0.0843,-0.0873,-0.0885,-0.0931,-0.0949,-0.0989,-0.1017,-0.102,-0.0996,-0.1022,-0.1059,-0.1063,-0.1066,-0.104,-0.1041,-0.1028,-0.1027,-0.1026,-0.1026,0,-0.0612,-0.0649,-0.067,-0.0712,-0.0736,-0.0777,-0.0825,-0.0874,-0.0923,-0.0953,-0.1024,-0.1042,-0.1055,-0.1089,-0.1075,-0.1117,-0.1087,-0.1073,-0.1036,-0.108,-0.105,-0.1049,-0.1035,-0.1033,-0.1032,-0.1031,0,0,-0.0615,-0.0671,-0.0686,-0.0713,-0.077,-0.0791,-0.0863,-0.0915,-0.0966,-0.1032,-0.1074,-0.1133,-0.1144,-0.1148,-0.1156,-0.1163,-0.1185,-0.1133,-0.113,-0.1115,-0.1155,-0.1074,-0.1064,-0.1182,-0.1182,-0.1182,-0.113,0,-0.063,-0.0676,-0.0704,-0.0759,-0.078,-0.0836,-0.0886,-0.0957,-0.102,-0.1073,-0.1124,-0.1164,-0.1169,-0.1189,-0.1202,-0.1183,-0.1184,-0.1199,-0.1106,-0.1103,-0.1031,-0.106,-0.1182,-0.1129,-0.1128,-0.1128,-0.1128,0,-0.063,-0.0659,-0.0716,-0.0781,-0.0799,-0.0843,-0.0926,-0.0989,-0.1076,-0.1122,-0.1171,-0.1191,-0.1219,-0.1216,-0.1204,-0.1213,-0.1186,-0.1171,-0.1168,-0.1045,-0.1018,-0.1069,-0.1124,-0.1124,-0.1125,-0.1125,-0.1125,0,-0.0595,-0.0666,-0.0711,-0.0732,-0.0811,-0.0866,-0.0917,-0.1014,-0.1073,-0.1152,-0.1169,-0.1214,-0.1225,-0.121,-0.1184,-0.1192,-0.1153,-0.1156,-0.1055,-0.1049,-0.109,-0.1085,-0.1133,-0.1133,-0.1133,-0.1134,-0.1134,0,-0.0579,-0.0615,-0.0709,-0.0731,-0.0795,-0.087,-0.0961,-0.1014,-0.1103,-0.1128,-0.1192,-0.1184,-0.1221,-0.1203,-0.1182,-0.1106,-0.1146,-0.1051,-0.1029,-0.1138,-0.1139,-0.1089,-0.1085,-0.1132,-0.1132,-0.1132,-0.1133,0,-0.0542,-0.0602,-0.0651,-0.0748,-0.0787,-0.0843,-0.0964,-0.1007,-0.1097,-0.1123,-0.1131,-0.1165,-0.1122,-0.1141,-0.1111,-0.1082,-0.1031,-0.0992,-0.1098,-0.1085,-0.0933,-0.0935,-0.0872,-0.0869,-0.0866,-0.0863,-0.0861,0,-0.0527,-0.0554,-0.0655,-0.0689,-0.0745,-0.0841,-0.0888,-0.0995,-0.1011,-0.1072,-0.1035,-0.1046,-0.1042,-0.095,-0.0978,-0.0939,-0.0928,-0.091,-0.0933,-0.092,-0.0906,-0.0912,-0.0918,-0.0857,-0.0856,-0.0855,-0.0855,0,-0.0488,-0.054,-0.058,-0.0647,-0.0707,-0.0751,-0.0813,-0.0819,-0.0898,-0.0971,-0.0919,-0.0915,-0.0871,-0.0866,-0.0855,-0.0823,-0.0933,-0.0881,-0.0887,-0.0908,-0.0901,-0.0892,-0.09,-0.0845,-0.0846,-0.0847,-0.0848,0,-0.0468,-0.0481,-0.0543,-0.0599,-0.0642,-0.0634,-0.0691,-0.0693,-0.0735,-0.0794,-0.076,-0.0781,-0.0829,-0.0799,-0.0771,-0.0757,-0.0746,-0.0738,-0.0752,-0.0763,-0.0755,-0.0731,-0.0594,0,0,0,0,0,-0.0442,-0.0449,-0.0485,-0.0525,-0.0547,-0.0574,-0.061,-0.0657,-0.0717,-0.065,-0.0719,-0.0669,-0.066,-0.0678,-0.0638,-0.0705,-0.0741,-0.0656,-0.0737,-0.0791,-0.0802,-0.0805,0,0,0,0,0,0,-0.0426,-0.0452,-0.0464,-0.0442,-0.0447,-0.0457,-0.0473,-0.0514,-0.049,-0.0562,-0.0556,-0.0629,-0.0622,-0.067,-0.0624,-0.0629,-0.0666,-0.0687,-0.0685,-0.0785,-0.0795,-0.0804,-0.0811,0,0,0,0,0]},{"header":{"parameterUnit":"m.s-1","parameterCategory":2,"la1":30.2991,"la2":30.254,"lo1":-89.0895,"lo2":-89.0444,"dy":0.0017,"dx":0.0017,"nx":28,"ny":28,"refTime":"2023-08-18T21:00:00:Z","depth":"4","parameterNumber":3,"parameterNumberName":"V-component_of_CURRENTS"},"data":[0,0,0,0,0,0,0,0,0,0,0,0,0,0,0,0,0,0,0,0,0,0,0,0,0,0,0,0,0,0,0,0,0,0,0,0,0,0,0,0,0,0,0,0,0,0,0,0,0,0,0,0,0,0,0,0,0,0,0.0162,0.0162,0,0.0189,0.019,0.019,0.0229,0.0229,0.0229,0.023,0.0278,0.0279,0.028,0,0,0,0,0,0,0,0,0,0,0,0,0,0.017,0.017,0.0162,0.0162,0.0162,0.0189,0.019,0.019,0.0228,0.0229,0.023,0.023,0.0278,0.0279,0.028,0,0,0,0,0,0,0,0,0,0,0,0,0,0.018,0.017,0.0162,0.0183,0.0185,0.0189,0.019,0.019,0.0228,0.0229,0.023,0.023,0.0278,0.0279,0.028,0.0273,0,0,0.0284,0.0285,0,0,0,0,0,0,0,0,0.018,0.018,0.018,0.0182,0.0184,0.0205,0.021,0.0218,0.0228,0.0214,0.023,0.0231,0.0254,0.0257,0.0263,0.0275,0.0278,0.0284,0.0285,0.0285,0.0286,0,0,0,0,0,0,0,0.0179,0.0179,0.0175,0.018,0.0183,0.0201,0.0203,0.0212,0.0231,0.0215,0.0218,0.0218,0.0256,0.0262,0.0264,0.0278,0.0284,0.0285,0.0286,0.0287,0.0317,0.0317,0,0,0,0,0,0,0.017,0.0178,0.0174,0.0175,0.0182,0.02,0.0202,0.0199,0.0231,0.0236,0.0217,0.0219,0.0259,0.0263,0.0266,0.0267,0.0285,0.0287,0.0287,0.0317,0.0317,0.0317,0,0,0,0,0,0,0.017,0.0169,0.0173,0.0176,0.0178,0.0198,0.0194,0.0199,0.0211,0.0231,0.0237,0.0225,0.026,0.0265,0.0285,0.0269,0.0287,0.0288,0.0317,0.0317,0.0317,0.0264,0,0,0,0,0,0,0.017,0.0168,0.0169,0.0175,0.0177,0.0174,0.0194,0.0199,0.0209,0.0212,0.024,0.0245,0.0261,0.0283,0.0286,0.0271,0.0289,0.0317,0.0317,0.0317,0.0265,0.0262,0.0259,0,0,0,0,0,0.017,0.0159,0.0169,0.0168,0.0175,0.0174,0.0177,0.0195,0.0208,0.021,0.0236,0.0245,0.0285,0.0284,0.0287,0.0273,0.0317,0.0317,0.0317,0.0267,0.0263,0.0259,0,0,0,0,0,0,0.0159,0.0162,0.0173,0.0163,0.017,0.018,0.0183,0.0194,0.0215,0.0224,0.0246,0.0253,0.0269,0.028,0.0278,0.0284,0.0302,0.0303,0.0263,0.0259,0.0256,0.0238,0.029,0,0,0,0,0,0.0157,0.0154,0.0159,0.0154,0.0156,0.0171,0.0176,0.0188,0.0203,0.0213,0.0229,0.0251,0.027,0.0273,0.0295,0.0291,0.0311,0.0286,0.0282,0.0279,0.0269,0.0288,0.0285,0.0317,0.0317,0.0317,0,0,0.015,0.0153,0.0151,0.0152,0.0161,0.0161,0.0176,0.0181,0.0186,0.0214,0.0227,0.0246,0.0271,0.0276,0.0282,0.0282,0.0284,0.0279,0.0276,0.0267,0.0288,0.0284,0.0281,0.0317,0.0317,0.0317,0,0,0.0132,0.0139,0.0132,0.0136,0.0146,0.0156,0.0156,0.0166,0.0179,0.0186,0.0215,0.0226,0.0242,0.0257,0.0267,0.0259,0.0276,0.0261,0.0215,0.0233,0.023,0.0228,0.0259,0.026,0.0246,0.0246,0.0246,0,0.0128,0.0118,0.013,0.0125,0.0126,0.0152,0.0145,0.016,0.0176,0.0177,0.0186,0.021,0.0233,0.0238,0.0231,0.025,0.0264,0.0224,0.0227,0.0225,0.0224,0.0256,0.0258,0.0244,0.0244,0.0244,0.0245,0,0.0104,0.0102,0.0096,0.0103,0.0106,0.0104,0.0122,0.0129,0.0141,0.0148,0.0154,0.0179,0.0181,0.0193,0.0205,0.0199,0.0216,0.023,0.0232,0.0217,0.0253,0.0256,0.024,0.0241,0.0242,0.0242,0,0,0.0072,0.008,0.0076,0.0079,0.0094,0.0091,0.0101,0.0107,0.0102,0.0116,0.01,0.0126,0.012,0.0131,0.0147,0.0156,0.0163,0.0171,0.0173,0.0192,0.0205,0.0152,0.0151,0.0168,0.0168,0.0168,0.0238,0,0.005,0.0038,0.0045,0.0038,0.0037,0.0057,0.0057,0.0068,0.0076,0.0068,0.0088,0.0082,0.0103,0.0087,0.01,0.015,0.0164,0.0143,0.0225,0.0227,0.0174,0.015,0.0167,0.024,0.0241,0.0241,0.0242,0,0.0018,0.0018,0.0002,0.0008,0.0005,-0.0004,-0.0006,-0.0006,0.0,-0.0,-0.0008,0.0009,0.0018,0.0037,0.0101,0.0081,0.013,0.0174,0.0178,0.0144,0.0178,0.0258,0.0246,0.0246,0.0246,0.0245,0.0245,0,-0.0011,-0.0014,-0.0029,-0.0028,-0.0021,-0.0038,-0.0042,-0.004,-0.0046,-0.006,-0.0069,-0.005,-0.0046,0.0009,0.0091,0.0088,0.0175,0.0191,0.0199,0.0198,0.025,0.0252,0.0237,0.0237,0.0237,0.0237,0.0236,0,-0.0038,-0.0048,-0.0051,-0.006,-0.009,-0.0081,-0.0121,-0.0119,-0.013,-0.0141,-0.0124,-0.0127,-0.0057,0.0002,0.0076,0.0138,0.0166,0.018,0.0201,0.0229,0.0228,0.0253,0.0254,0.0239,0.0239,0.0238,0.0238,0,-0.0066,-0.0066,-0.0081,-0.0092,-0.0107,-0.0135,-0.0171,-0.019,-0.0198,-0.0213,-0.0221,-0.0183,-0.0135,-0.0042,0.006,0.0113,0.0188,0.0213,0.0243,0.0267,0.0206,0.0204,0.0209,0.0207,0.0206,0.0205,0.0204,0,-0.008,-0.0092,-0.0114,-0.0135,-0.015,-0.0194,-0.0221,-0.0235,-0.0245,-0.024,-0.0239,-0.0213,-0.0181,-0.0068,0.0017,0.0137,0.0157,0.0214,0.0189,0.0178,0.0198,0.0198,0.0197,0.0202,0.0201,0.0201,0.0201,0,-0.0101,-0.0113,-0.0125,-0.0166,-0.0204,-0.0241,-0.0276,-0.0293,-0.0296,-0.0289,-0.0271,-0.0232,-0.0183,-0.0106,-0.0016,0.008,0.0179,0.0201,0.0204,0.0181,0.017,0.0191,0.0192,0.0196,0.0197,0.0197,0.0198,0,-0.0122,-0.0135,-0.0155,-0.0193,-0.0233,-0.0273,-0.0298,-0.0309,-0.0325,-0.0304,-0.0299,-0.0249,-0.0212,-0.0135,-0.0043,0.0021,0.0031,0.0078,0.0088,0.0094,0.0027,-0.0007,-0.0031,0,0,0,0,0,-0.0137,-0.0151,-0.0178,-0.0217,-0.0251,-0.0278,-0.0315,-0.0329,-0.0331,-0.0322,-0.0313,-0.0271,-0.0194,-0.0159,-0.011,-0.0077,0.0043,-0.0016,0.0103,0.0171,0.0176,0.0109,0,0,0,0,0,0,-0.0151,-0.0173,-0.0177,-0.0223,-0.0254,-0.0298,-0.0328,-0.0334,-0.0329,-0.0319,-0.0285,-0.0249,-0.018,-0.0224,-0.0106,-0.0088,-0.0003,0.0025,0.0026,0.0168,0.0173,0.0177,0.011,0,0,0,0,0]}]]